User: anonymous   Login
Location: Passo di Treia
(43.2833°N, 13.3333°E)
Time: 10:58:59
(UTC+00:00)
Language:

Cosmos 1302 Rocket - Orbit

View from above orbital plane
View from above orbital plane
View from above satellite
View from above satellite

Ground track
Ground track

The orbit data is extracted from the following two-line orbital elements,

1 12792U 81084B   20057.42473877 +.00000037 +00000-0 +20993-4 0  9995
2 12792 074.0307 023.3938 0012439 068.4366 291.8112 14.37570729016167
Epoch (UTC): 26 February 2020 10:11:37
Eccentricity: 0.0012439
inclination: 74.0307°
perigee height: 757 km
apogee height: 775 km
right ascension of ascending node: 23.3938°
argument of perigee: 68.4366°
revolutions per day: 14.37570729
mean anomaly at epoch: 291.8112°
orbit number at epoch: 1616

The dashed part of the orbit path shows where the satellite is in the earth's shadow,  

DLR